Date String (YYYY-MM-DD hh:mm:ss) UTC,Instrument flags,absolute air pressure of the measurement (hPa),sample flow rate (lpm),inlet stack bypass flow (lpm),air temperature of the measurement (°C),ambient temperature measured by the external sensor (°C),aerosol sample conditioner tube jacket temperature (°C),OPC LED temperature (°C),internal box temperature (°C),relative humidity of the measurement (%),span deviation,mass concentration of particles derived from Lorenz-Mie calculation of OPC scattering (μg/m³),mass concentration of particles derived from Lorenz-Mie calculation of OPC scattering (μg/m³),mass concentration of particles derived from Lorenz-Mie calculation of OPC scattering (μg/m³)
DateTimeUTC,F1_M11,P_M11,Q1_M11,Q2_M11,T1_M11,T2_M11,T3_M11,T4_M11,T5_M11,U1_M11,ZSPAN_M11,X0_M11,X2_M11,X1_M11
2023-12-05 21:00:00,SystemResetWarning,0834.8,4.99,000.00,027.3,026.1,000.0,035.4,028.8,15.3,0000.0,0009.74,0004.15,0003.54
2023-12-05 21:01:00,SystemResetWarning,0834.8,5.00,000.00,027.3,024.3,000.0,035.3,028.6,15.6,0000.0,0009.72,0004.10,0003.54
2023-12-05 21:02:00,SystemResetWarning,0834.8,5.01,000.00,027.1,023.0,000.0,035.3,028.3,15.6,0000.0,0010.10,0004.11,0003.53
2023-12-05 21:03:00,SystemResetWarning,0834.8,5.01,000.00,027.0,023.0,000.0,035.2,027.8,15.6,0000.0,0010.03,0004.11,0003.53
2023-12-05 21:04:00,SystemResetWarning,0834.7,4.99,000.00,026.8,023.4,000.0,035.2,027.5,15.7,0000.0,0009.66,0004.11,0003.54
2023-12-05 21:05:00,SystemResetWarning,0834.7,5.00,000.00,026.7,023.8,000.0,035.1,027.6,16.2,0000.0,0009.62,0004.20,0003.58
2023-12-05 21:06:00,SystemResetWarning,0834.8,5.00,000.00,026.7,024.1,000.0,035.1,027.7,16.4,0000.0,0009.33,0004.29,0003.65
2023-12-05 21:07:00,SystemResetWarning,0834.8,4.98,000.00,026.7,024.5,000.0,035.1,027.7,15.7,0000.0,0009.73,0004.36,0003.70
2023-12-05 21:08:00,SystemResetWarning,0834.8,5.00,000.00,026.7,024.8,000.0,035.0,027.8,15.5,0000.0,0009.90,0004.45,0003.76
2023-12-05 21:09:00,SystemResetWarning,0834.9,5.00,000.00,026.7,025.0,000.0,035.0,027.9,15.7,0000.0,0009.98,0004.51,0003.81
2023-12-05 21:10:00,SystemResetWarning,0834.8,5.01,000.00,026.7,025.2,000.0,035.0,028.0,15.9,0000.0,0010.21,0004.58,0003.87
2023-12-05 21:11:00,SystemResetWarning,0834.7,5.01,000.00,026.7,025.4,000.0,035.0,028.0,16.0,0000.0,0010.57,0004.67,0003.92
2023-12-05 21:12:00,SystemResetWarning,0834.7,4.99,000.00,026.7,025.5,000.0,035.0,028.1,15.5,0000.0,0010.43,0004.70,0003.95
2023-12-05 21:13:00,SystemResetWarning,0834.7,4.99,000.00,026.7,025.7,000.0,035.0,028.1,15.4,0000.0,0010.10,0004.73,0003.96
2023-12-05 21:14:00,SystemResetWarning,0834.8,5.00,000.00,026.8,025.8,000.0,035.0,028.2,15.6,0000.0,0010.16,0004.73,0003.99
2023-12-05 21:15:00,SystemResetWarning,0834.8,5.01,000.00,026.8,025.9,000.0,035.0,028.2,15.6,0000.0,0010.23,0004.74,0004.02
2023-12-05 21:16:00,SystemResetWarning,0834.9,5.01,000.00,026.8,025.9,000.0,035.0,028.3,15.4,0000.0,0010.21,0004.67,0003.99
2023-12-05 21:17:00,SystemResetWarning,0835.3,5.00,000.00,026.9,026.0,000.0,035.0,028.3,15.1,0000.0,0010.57,0004.58,0003.95
2023-12-05 21:18:00,SystemResetWarning,0835.4,4.99,000.00,026.9,026.1,000.0,035.0,028.3,15.1,0000.0,0011.19,0004.56,0003.93
2023-12-05 21:19:00,SystemResetWarning,0835.2,5.00,000.00,026.9,025.9,000.0,035.0,028.4,15.3,0000.0,0011.14,0004.55,0003.93
2023-12-05 21:20:00,SystemResetWarning,0835.2,5.00,000.00,026.9,024.2,000.0,035.0,028.2,15.6,0000.0,0011.62,0004.53,0003.92
2023-12-05 21:21:00,SystemResetWarning,0835.3,5.01,000.00,026.8,022.6,000.0,035.0,027.9,15.6,0000.0,0011.45,0004.51,0003.90
2023-12-05 21:22:00,SystemResetWarning,0835.4,5.02,000.00,026.6,022.5,000.0,034.9,027.6,15.9,0000.0,0010.82,0004.45,0003.89
2023-12-05 21:23:00,SystemResetWarning,0835.3,5.00,000.00,026.5,022.9,000.0,034.8,027.2,16.2,0000.0,0010.87,0004.46,0003.89
2023-12-05 21:24:00,SystemResetWarning,0835.4,5.00,000.00,026.4,023.3,000.0,034.8,027.2,16.2,0000.0,0010.98,0004.46,0003.89
2023-12-05 21:25:00,SystemResetWarning,0835.4,5.00,000.00,026.3,023.7,000.0,034.7,027.3,15.9,0000.0,0010.84,0004.43,0003.87
2023-12-05 21:26:00,SystemResetWarning,0835.1,5.00,000.00,026.3,024.1,000.0,034.7,027.4,16.0,0000.0,0010.68,0004.42,0003.84
2023-12-05 21:27:00,SystemResetWarning,0834.9,5.00,000.00,026.3,024.4,000.0,034.7,027.5,15.9,0000.0,0010.49,0004.43,0003.85
2023-12-05 21:28:00,SystemResetWarning,0834.9,5.01,000.00,026.3,024.7,000.0,034.7,027.6,15.9,0000.0,0010.61,0004.46,0003.88
2023-12-05 21:29:00,SystemResetWarning,0834.9,5.01,000.00,026.4,024.9,000.0,034.6,027.7,15.9,0000.0,0009.86,0004.51,0003.90
2023-12-05 21:30:00,SystemResetWarning,0834.9,4.99,000.00,026.4,025.1,000.0,034.6,027.8,16.0,0000.0,0009.82,0004.54,0003.90
2023-12-05 21:31:00,SystemResetWarning,0835.0,5.00,000.00,026.4,025.3,000.0,034.7,027.9,15.6,0000.0,0009.47,0004.57,0003.91
2023-12-05 21:32:00,SystemResetWarning,0835.0,5.01,000.00,026.5,025.4,000.0,034.7,027.9,15.4,0000.0,0009.04,0004.58,0003.93
2023-12-05 21:33:00,SystemResetWarning,0835.0,4.99,000.00,026.5,025.5,000.0,034.7,028.0,15.3,0000.0,0009.22,0004.61,0003.94
2023-12-05 21:34:00,SystemResetWarning,0834.9,5.00,000.00,026.6,025.6,000.0,034.7,028.0,15.4,0000.0,0009.37,0004.60,0003.92
2023-12-05 21:35:00,SystemResetWarning,0835.0,5.00,000.00,026.6,025.7,000.0,034.7,028.1,15.3,0000.0,0009.74,0004.59,0003.91
2023-12-05 21:36:00,SystemResetWarning,0835.0,5.00,000.00,026.6,025.8,000.0,034.7,028.1,14.7,0000.0,0010.20,0004.61,0003.92
2023-12-05 21:37:00,SystemResetWarning,0835.0,5.00,000.00,026.7,025.7,000.0,034.7,028.2,14.9,0000.0,0010.23,0004.62,0003.94
2023-12-05 21:38:00,SystemResetWarning,0835.0,4.99,000.00,026.7,024.1,000.0,034.7,028.0,15.1,0000.0,0011.00,0004.64,0003.95
2023-12-05 21:39:00,SystemResetWarning,0835.0,5.01,000.00,026.5,022.3,000.0,034.7,027.7,15.0,0000.0,0010.66,0004.64,0003.93
2023-12-05 21:40:00,SystemResetWarning,0835.1,5.00,000.00,026.4,022.2,000.0,034.6,027.4,14.9,0000.0,0010.35,0004.55,0003.89
2023-12-05 21:41:00,SystemResetWarning,0835.0,5.00,000.00,026.2,022.6,000.0,034.6,027.0,15.3,0000.0,0010.06,0004.46,0003.85
2023-12-05 21:42:00,SystemResetWarning,0835.1,5.01,000.00,026.1,023.0,000.0,034.5,027.0,15.4,0000.0,0009.91,0004.41,0003.82
2023-12-05 21:43:00,SystemResetWarning,0835.1,4.99,000.00,026.1,023.5,000.0,034.5,027.1,15.6,0000.0,0009.94,0004.36,0003.78
2023-12-05 21:44:00,SystemResetWarning,0835.1,4.99,000.00,026.1,023.9,000.0,034.4,027.2,15.7,0000.0,0009.98,0004.33,0003.75
2023-12-05 21:45:00,SystemResetWarning,0835.1,5.00,000.00,026.1,024.2,000.0,034.4,027.4,15.8,0000.0,0009.68,0004.28,0003.71
2023-12-05 21:46:00,SystemResetWarning,0835.1,5.00,000.00,026.1,024.5,000.0,034.4,027.4,15.5,0000.0,0009.45,0004.22,0003.68
2023-12-05 21:47:00,SystemResetWarning,0835.1,5.00,000.00,026.1,024.7,000.0,034.4,027.5,15.3,0000.0,0008.84,0004.16,0003.65
2023-12-05 21:48:00,SystemResetWarning,0835.1,5.00,000.00,026.2,024.9,000.0,034.4,027.6,15.3,0000.0,0008.80,0004.12,0003.62
2023-12-05 21:49:00,SystemResetWarning,0835.2,5.01,000.00,026.2,025.1,000.0,034.4,027.7,15.1,0000.0,0009.12,0004.06,0003.56
2023-12-05 21:50:00,SystemResetWarning,0835.1,4.99,000.00,026.3,025.2,000.0,034.4,027.8,15.0,0000.0,0008.23,0004.00,0003.51
2023-12-05 21:51:00,SystemResetWarning,0835.1,5.01,000.00,026.3,025.4,000.0,034.4,027.8,14.6,0000.0,0009.16,0003.96,0003.49
2023-12-05 21:52:00,SystemResetWarning,0835.1,5.00,000.00,026.4,025.5,000.0,034.4,027.9,14.6,0000.0,0009.61,0003.95,0003.49
2023-12-05 21:53:00,SystemResetWarning,0835.2,4.99,000.00,026.4,025.6,000.0,034.5,027.9,14.4,0000.0,0009.92,0003.96,0003.50
2023-12-05 21:54:00,SystemResetWarning,0835.2,5.00,000.00,026.5,025.7,000.0,034.5,028.0,14.3,0000.0,0010.10,0004.00,0003.52
2023-12-05 21:55:00,SystemResetWarning,0835.1,5.00,000.00,026.5,025.1,000.0,034.5,028.0,14.2,0000.0,0010.33,0004.01,0003.53
2023-12-05 21:56:00,SystemResetWarning,0835.1,5.00,000.00,026.4,023.0,000.0,034.5,027.7,14.2,0000.0,0010.85,0004.03,0003.53
2023-12-05 21:57:00,SystemResetWarning,0835.1,5.01,000.00,026.3,022.0,000.0,034.4,027.4,14.5,0000.0,0011.06,0004.06,0003.56
2023-12-05 21:58:00,SystemResetWarning,0835.1,5.02,000.00,026.1,022.2,000.0,034.4,027.0,14.9,0000.0,0010.98,0004.07,0003.56
2023-12-05 21:59:00,SystemResetWarning,0835.1,4.99,000.00,026.0,022.6,000.0,034.3,026.8,14.9,0000.0,0011.50,0004.09,0003.56
